DW7126 Weather Reports


Display with metric or nautical units.
time (UTC)temp
F
wind
direction
speed
MPH
gust
MPH
rain 1hr
in
rain 24hr
in
rain mn
in
humidity
%
barometer
mb
20200405101453 66 197 16.0 24.0 0.00 0.27 0.27 82 1011.0
20200405100954 66 211 13.0 24.0 0.00 0.27 0.27 82 1011.0
20200405100455 66 221 10.0 17.0 0.00 0.27 0.27 83 1011.0
20200405095956 65 199 13.0 25.0 0.00 0.27 0.27 84 1011.0
20200405095454 65 209 17.0 25.0 0.00 0.27 0.27 84 1011.0
20200405094955 65 187 18.0 29.0 0.00 0.27 0.27 84 1010.9
20200405094454 65 192 19.0 29.0 0.00 0.27 0.27 83 1010.7
20200405093956 65 215 18.0 26.0 0.00 0.27 0.27 83 1010.8
20200405093450 66 205 16.0 26.0 0.00 0.27 0.27 83 1010.8
20200405092956 66 225 15.0 21.0 0.00 0.27 0.27 84 1010.8
20200405092449 66 190 15.0 22.0 0.00 0.27 0.27 83 1010.7
20200405091948 66 170 16.0 23.0 0.00 0.27 0.27 83 1010.6
20200405091449 65 184 16.0 26.0 0.00 0.27 0.27 83 1010.5
20200405090950 65 177 15.0 26.0 0.00 0.27 0.27 83 1010.5
20200405090448 65 164 15.0 22.0 0.00 0.27 0.27 83 1010.4
20200405085949 66 204 14.0 27.0 0.00 0.27 0.27 83 1010.4
20200405085438 65 184 13.0 27.0 0.00 0.27 0.27 83 1010.3
20200405084940 65 161 12.0 20.0 0.00 0.27 0.27 84 1010.4
20200405084441 65 195 12.0 22.0 0.00 0.27 0.27 84 1010.3
20200405083938 65 176 11.0 22.0 0.00 0.27 0.27 85 1010.2
20200405083438 65 178 10.0 18.0 0.00 0.27 0.27 86 1010.2
20200405082935 65 167 10.0 18.0 0.00 0.27 0.27 85 1010.2
20200405082438 65 209 10.0 17.0 0.00 0.27 0.27 86 1010.2
20200405081931 65 171 10.0 17.0 0.00 0.27 0.27 86 1010.2
20200405081433 64 163 8.0 17.0 0.00 0.27 0.27 86 1010.3
20200405080932 64 176 8.0 17.0 0.00 0.27 0.27 87 1010.4
20200405080435 64 178 8.0 13.0 0.00 0.27 0.27 88 1010.5
20200405075930 63 190 8.0 15.0 0.00 0.27 0.27 88 1010.7
20200405075432 63 194 8.0 15.0 0.00 0.27 0.27 88 1010.7
20200405074931 63 170 8.0 15.0 0.00 0.27 0.27 88 1010.7
20200405074435 63 190 8.0 14.0 0.00 0.27 0.27 88 1010.8
20200405073931 63 199 8.0 15.0 0.00 0.27 0.27 88 1010.7
20200405073438 63 190 9.0 15.0 0.00 0.27 0.27 88 1010.7
20200405072935 62 181 8.0 13.0 0.00 0.27 0.27 89 1010.7
20200405072434 62 194 7.0 12.0 0.00 0.27 0.27 89 1010.7
20200405071931 62 194 7.0 12.0 0.00 0.27 0.27 89 1010.7
20200405071433 62 192 8.0 14.0 0.00 0.27 0.27 89 1010.7
20200405070931 62 182 8.0 14.0 0.00 0.27 0.27 89 1010.6
20200405070433 62 173 8.0 15.0 0.00 0.27 0.27 89 1010.6
20200405065933 62 204 8.0 15.0 0.00 0.27 0.27 89 1010.5
20200405065430 62 169 8.0 14.0 0.00 0.27 0.27 89 1010.5
20200405064927 62 178 8.0 14.0 0.00 0.27 0.27 89 1010.4
20200405064427 62 173 8.0 14.0 0.00 0.27 0.27 89 1010.4
20200405063926 62 171 8.0 13.0 0.00 0.27 0.27 89 1010.3
20200405063427 62 167 7.0 13.0 0.01 0.27 0.27 89 1010.3
20200405062927 62 200 8.0 14.0 0.01 0.27 0.27 89 1010.2
20200405062428 62 166 9.0 16.0 0.01 0.27 0.27 89 1010.2
20200405061928 62 192 9.0 16.0 0.01 0.27 0.27 89 1010.2
20200405061426 62 185 8.0 15.0 0.01 0.27 0.27 89 1010.2
20200405060929 62 195 9.0 19.0 0.01 0.27 0.27 89 1010.1
20200405060418 62 176 8.0 19.0 0.01 0.27 0.27 89 1009.9
20200405055918 62 182 9.0 17.0 0.02 0.27 0.27 89 1009.8
20200405055418 62 200 10.0 17.0 0.02 0.27 0.27 89 1009.7
20200405054918 61 171 10.0 15.0 0.02 0.27 0.27 89 1009.6
20200405054420 62 146 10.0 15.0 0.02 0.27 0.27 89 1009.5
20200405053919 62 149 9.0 17.0 0.02 0.27 0.27 89 1009.4
20200405053420 62 168 10.0 17.0 0.01 0.26 0.26 89 1009.5
20200405052919 62 183 9.0 13.0 0.01 0.26 0.26 89 1009.5
20200405052414 61 156 9.0 15.0 0.01 0.26 0.26 89 1009.6
20200405051915 61 163 9.0 16.0 0.01 0.26 0.26 89 1009.5
20200405051418 61 173 9.0 16.0 0.01 0.26 0.26 89 1009.5
20200405050914 61 157 8.0 16.0 0.01 0.26 0.26 89 1009.5
20200405050415 61 171 9.0 18.0 0.01 0.26 0.26 89 1009.6
20200405045918 61 180 10.0 18.0 0.00 0.25 0.25 88 1009.7
20200405045414 61 168 10.0 17.0 0.00 0.25 0.25 88 1009.6
20200405044915 61 175 9.0 15.0 0.00 0.25 0.25 88 1009.6
20200405044414 61 161 10.0 17.0 0.00 0.25 0.25 88 1009.5
20200405043916 61 156 9.0 17.0 0.00 0.25 0.25 88 1009.6
20200405043409 61 202 9.0 17.0 0.00 0.25 0.25 88 1009.6
20200405042909 61 182 9.0 15.0 0.00 0.25 0.25 88 1009.6
20200405042409 61 198 8.0 15.0 0.00 0.25 0.25 88 1009.5
20200405041910 61 150 8.0 14.0 0.01 0.25 0.25 88 1009.5
20200405041410 61 155 9.0 16.0 0.01 0.25 0.25 88 1009.6
20200405040908 61 181 11.0 21.0 0.02 0.25 0.25 88 1009.6
20200405040407 61 192 12.0 21.0 0.02 0.25 0.25 88 1009.7
20200405035909 61 196 12.0 21.0 0.02 0.25 0.25 88 1009.6
20200405035409 61 185 12.0 21.0 0.02 0.25 0.25 88 1009.7
20200405034905 61 207 11.0 20.0 0.02 0.25 0.25 88 1009.7
20200405034403 61 180 10.0 17.0 0.02 0.25 0.25 89 1009.7
20200405033906 61 198 9.0 19.0 0.02 0.25 0.25 89 1009.7
20200405033402 61 181 8.0 19.0 0.02 0.25 0.25 89 1009.7
20200405032902 61 195 8.0 16.0 0.03 0.25 0.25 88 1009.8
20200405032402 61 175 8.0 16.0 0.03 0.25 0.25 88 1009.7
20200405031904 60 159 7.0 13.0 0.02 0.24 0.24 88 1009.7
20200405031403 60 200 8.0 13.0 0.02 0.24 0.24 88 1009.7
20200405030904 60 178 8.0 15.0 0.02 0.24 0.24 88 1009.6
20200405030404 60 202 8.0 15.0 0.02 0.24 0.24 88 1009.7
20200405025904 60 182 9.0 15.0 0.05 0.24 0.24 88 1009.7
20200405025404 60 158 8.0 15.0 0.05 0.24 0.24 88 1009.7
20200405024903 60 167 8.0 13.0 0.05 0.24 0.24 88 1009.8
20200405024403 60 176 9.0 16.0 0.05 0.24 0.24 88 1009.7
20200405023905 60 184 9.0 16.0 0.05 0.24 0.24 88 1009.7
20200405023402 60 184 8.0 13.0 0.04 0.23 0.23 88 1009.6
20200405022901 60 171 8.0 13.0 0.03 0.22 0.22 87 1009.6
20200405022402 60 161 9.0 13.0 0.03 0.22 0.22 87 1009.7
20200405021906 60 184 9.0 13.0 0.04 0.22 0.22 87 1009.6
20200405021401 60 167 8.0 17.0 0.04 0.22 0.22 87 1009.6
20200405020900 60 143 8.0 17.0 0.04 0.22 0.22 86 1009.5
20200405020358 60 139 8.0 15.0 0.03 0.21 0.21 86 1009.4
20200405015900 61 141 8.0 15.0 0.01 0.19 0.19 85 1009.4
20200405015358 61 149 9.0 15.0 0.01 0.19 0.19 85 1009.5
20200405014857 61 169 10.0 18.0 0.01 0.19 0.19 85 1009.5
20200405014400 61 171 11.0 18.0 0.01 0.19 0.19 85 1009.5
20200405013858 61 194 9.0 18.0 0.01 0.19 0.19 85 1009.4
20200405013358 61 147 9.0 16.0 0.01 0.19 0.19 85 1009.7
20200405012900 61 140 9.0 16.0 0.02 0.19 0.19 85 1009.8
20200405012358 60 154 7.0 13.0 0.02 0.19 0.19 85 1009.8
20200405011858 60 143 8.0 14.0 0.02 0.18 0.18 85 1009.7
20200405011400 60 146 9.0 17.0 0.04 0.18 0.18 85 1009.7
20200405010849 60 180 9.0 17.0 0.06 0.18 0.18 86 1009.8
20200405010349 60 142 9.0 17.0 0.09 0.18 0.18 86 1009.8
20200405005850 60 157 9.0 17.0 0.11 0.18 0.18 86 1009.9
20200405005349 60 142 9.0 16.0 0.12 0.18 0.18 86 1010.0
20200405004850 60 177 9.0 14.0 0.12 0.18 0.18 86 1010.1
20200405004348 60 156 9.0 16.0 0.13 0.18 0.18 86 1010.1
20200405003850 60 167 10.0 16.0 0.15 0.18 0.18 86 1010.0
20200405003348 60 167 10.0 16.0 0.17 0.18 0.18 86 1010.1
20200405002849 60 123 10.0 15.0 0.16 0.17 0.17 87 1010.1
20200405002351 60 135 10.0 16.0 0.16 0.17 0.17 87 1010.1
20200405001849 60 142 9.0 16.0 0.16 0.17 0.17 87 1010.2
20200405001343 60 177 8.0 15.0 0.13 0.14 0.14 87 1010.2
20200405000844 60 182 8.0 13.0 0.11 0.12 0.12 86 1010.2
20200405000342 60 166 8.0 13.0 0.09 0.09 0.09 86 1010.3
20200404235842 60 137 8.0 17.0 0.07 0.07 0.07 85 1010.2
20200404235342 60 164 8.0 17.0 0.06 0.06 0.06 85 1010.2
20200404234846 60 147 8.0 16.0 0.06 0.06 0.06 85 1010.1
20200404234342 60 161 9.0 16.0 0.05 0.05 0.05 84 1010.2
20200404233844 61 161 10.0 16.0 0.03 0.03 0.03 83 1010.3
20200404233343 61 171 10.0 18.0 0.02 0.02 0.02 83 1010.3
20200404232836 61 167 11.0 18.0 0.02 0.02 0.02 82 1010.3
20200404232338 61 176 11.0 18.0 0.01 0.01 0.01 81 1010.3
20200404231838 61 177 11.0 18.0 0.01 0.01 0.01 80 1010.3
20200404231336 61 162 12.0 20.0 0.01 0.01 0.01 80 1010.2
20200404230836 62 161 13.0 22.0 0.01 0.01 0.01 79 1010.3
20200404230335 62 177 14.0 23.0 0.00 0.00 0.00 78 1010.4
20200404225837 62 178 13.0 23.0 0.00 0.00 0.00 77 1010.5
20200404225339 63 193 13.0 24.0 0.00 0.00 0.00 76 1010.4
20200404224839 63 173 15.0 24.0 0.00 0.00 0.00 75 1010.4
20200404224338 63 177 14.0 24.0 0.00 0.00 0.00 75 1010.2
20200404223830 63 180 14.0 22.0 0.00 0.00 0.00 75 1010.4
20200404223330 63 172 13.0 21.0 0.00 0.00 0.00 76 1010.3
20200404222832 63 195 12.0 23.0 0.00 0.00 0.00 76 1010.1
20200404222330 63 209 13.0 28.0 0.00 0.00 0.00 76 1010.2
20200404221831 63 191 14.0 28.0 0.00 0.00 0.00 76 1010.3
20200404221331 63 199 13.0 22.0 0.00 0.00 0.00 76 1010.2
20200404220831 63 165 14.0 31.0 0.00 0.00 0.00 76 1010.2
20200404220328 63 179 14.0 31.0 0.00 0.00 0.00 76 1010.2
20200404215832 62 170 12.0 22.0 0.00 0.00 0.00 77 1010.1
20200404215330 62 180 13.0 27.0 0.00 0.00 0.00 77 1010.1
20200404214826 62 176 15.0 27.0 0.00 0.00 0.00 77 1010.2
20200404214326 62 175 16.0 24.0 0.00 0.00 0.00 77 1010.2
20200404213814 62 215 15.0 28.0 0.00 0.00 0.00 77 1010.3
20200404213315 62 211 14.0 28.0 0.00 0.00 0.00 77 1010.3
20200404212814 62 207 13.0 25.0 0.00 0.00 0.00 76 1010.2
20200404212314 63 204 13.0 21.0 0.00 0.00 0.00 74 1010.3
20200404211814 63 184 15.0 29.0 0.00 0.00 0.00 72 1010.2
20200404211302 63 190 17.0 29.0 0.00 0.00 0.00 71 1010.2
20200404210806 63 173 15.0 27.0 0.00 0.00 0.00 70 1010.1
20200404210304 63 188 12.0 22.0 0.00 0.00 0.00 70 1010.1
20200404205804 64 191 12.0 22.0 0.00 0.00 0.00 71 1010.1
20200404205304 63 194 12.0 21.0 0.00 0.00 0.00 71 1010.2
20200404204804 63 187 12.0 21.0 0.00 0.00 0.00 72 1010.1
20200404204301 63 173 9.0 17.0 0.00 0.00 0.00 74 1010.0
20200404203802 63 184 7.0 15.0 0.00 0.00 0.00 75 1010.1
20200404203304 63 202 6.0 11.0 0.00 0.00 0.00 76 1010.1
20200404202805 63 186 6.0 10.0 0.00 0.00 0.00 76 1010.0
20200404202302 63 173 6.0 14.0 0.00 0.00 0.00 76 1009.9
20200404201804 63 164 6.0 14.0 0.00 0.00 0.00 76 1009.9
20200404201303 63 171 6.0 11.0 0.00 0.00 0.00 77 1009.8
20200404200807 63 148 6.0 13.0 0.00 0.00 0.00 76 1009.8
20200404200300 63 157 7.0 13.0 0.00 0.00 0.00 76 1009.8
20200404195802 63 172 7.0 14.0 0.00 0.00 0.00 77 1009.8
20200404195304 63 170 7.0 14.0 0.00 0.00 0.00 77 1009.7
20200404194803 63 159 7.0 12.0 0.00 0.00 0.00 77 1009.6
20200404194305 63 126 7.0 12.0 0.00 0.00 0.00 77 1009.6
20200404193755 63 172 7.0 15.0 0.00 0.00 0.00 77 1009.5
20200404193251 63 124 8.0 15.0 0.00 0.00 0.00 77 1009.4
20200404192748 63 124 7.0 12.0 0.00 0.00 0.00 77 1009.5
20200404192245 63 151 8.0 12.0 0.00 0.00 0.00 77 1009.5
20200404191747 63 119 8.0 13.0 0.00 0.00 0.00 77 1009.3
20200404191238 63 144 7.0 13.0 0.00 0.00 0.00 76 1009.3
20200404190739 63 153 7.0 12.0 0.00 0.00 0.00 76 1009.3
20200404190237 63 163 6.0 12.0 0.00 0.00 0.00 76 1009.3
20200404185738 63 165 5.0 12.0 0.00 0.00 0.00 75 1009.3
20200404185234 63 147 5.0 11.0 0.00 0.00 0.00 75 1009.3
20200404184733 63 140 6.0 11.0 0.00 0.00 0.00 74 1009.2
20200404184232 63 133 6.0 10.0 0.00 0.00 0.00 73 1009.2
20200404183729 63 123 7.0 12.0 0.00 0.00 0.00 73 1009.1
20200404183229 63 158 8.0 12.0 0.00 0.00 0.00 72 1009.1
20200404182730 63 120 8.0 13.0 0.00 0.00 0.00 72 1009.2
20200404182232 63 140 7.0 13.0 0.00 0.00 0.00 72 1009.2
20200404181732 63 130 6.0 12.0 0.00 0.00 0.00 72 1009.1
20200404181230 62 119 7.0 13.0 0.00 0.00 0.00 72 1009.1
20200404180729 62 165 8.0 13.0 0.00 0.00 0.00 71 1009.1
20200404180230 62 146 9.0 14.0 0.00 0.00 0.00 71 1009.0
20200404175729 62 146 8.0 14.0 0.00 0.00 0.00 71 1009.1
20200404175228 62 136 8.0 12.0 0.00 0.00 0.00 71 1009.1
20200404174728 62 140 9.0 15.0 0.00 0.00 0.00 71 1009.1
20200404174232 62 138 9.0 15.0 0.00 0.00 0.00 71 1009.0
20200404173720 62 154 9.0 16.0 0.00 0.00 0.00 70 1009.0
20200404173216 62 136 10.0 17.0 0.00 0.00 0.00 71 1009.0
20200404172717 62 135 9.0 17.0 0.00 0.00 0.00 71 1009.0
20200404172217 63 145 8.0 14.0 0.00 0.00 0.00 71 1009.0
20200404171717 63 136 8.0 14.0 0.00 0.00 0.00 72 1009.0
20200404171218 62 75 8.0 14.0 0.00 0.00 0.00 74 1009.0
20200404170712 62 154 8.0 14.0 0.00 0.00 0.00 74 1009.1
20200404170212 61 148 8.0 16.0 0.00 0.00 0.00 75 1009.1
20200404165711 61 133 11.0 22.0 0.00 0.00 0.00 75 1009.3
20200404165215 61 168 16.0 30.0 0.00 0.00 0.00 74 1009.3
20200404164714 62 223 18.0 34.0 0.00 0.00 0.00 74 1009.6
20200404164204 63 186 13.0 34.0 0.00 0.00 0.00 73 1009.5
20200404163702 65 184 10.0 17.0 0.00 0.00 0.00 71 1009.2
20200404163202 65 178 9.0 17.0 0.00 0.00 0.00 70 1009.0
20200404162704 65 153 9.0 15.0 0.00 0.00 0.00 70 1008.9
20200404162203 65 156 10.0 19.0 0.00 0.00 0.00 69 1008.9
20200404161702 65 192 11.0 21.0 0.00 0.00 0.00 69 1009.0
20200404161203 65 164 10.0 21.0 0.00 0.00 0.00 69 1009.1
20200404160705 65 148 10.0 20.0 0.00 0.00 0.00 68 1009.0
20200404160203 66 152 13.0 24.0 0.00 0.00 0.00 68 1008.9
20200404155705 66 178 13.0 28.0 0.00 0.00 0.00 66 1009.0
20200404155201 66 199 10.0 28.0 0.00 0.00 0.00 67 1008.9
20200404154701 66 154 11.0 18.0 0.00 0.00 0.00 68 1008.9
20200404154202 66 154 12.0 22.0 0.00 0.00 0.00 67 1008.9
20200404153702 66 175 11.0 22.0 0.00 0.00 0.00 67 1009.0
20200404153159 66 165 10.0 22.0 0.00 0.00 0.00 67 1009.0
20200404152659 65 138 11.0 20.0 0.00 0.00 0.00 69 1009.0
20200404152201 65 141 10.0 19.0 0.00 0.00 0.00 68 1009.0
20200404151659 66 136 11.0 19.0 0.00 0.00 0.00 68 1008.9
20200404151159 66 167 12.0 19.0 0.00 0.00 0.00 67 1009.1
20200404150648 66 113 12.0 22.0 0.00 0.00 0.00 68 1008.9
20200404150147 66 174 12.0 24.0 0.00 0.00 0.00 67 1009.0
20200404145651 66 140 12.0 24.0 0.00 0.00 0.00 68 1009.0
20200404145146 65 142 12.0 22.0 0.00 0.00 0.00 68 1009.2
20200404144646 65 158 12.0 22.0 0.00 0.00 0.00 68 1009.1
20200404144137 65 171 11.0 22.0 0.00 0.00 0.00 67 1009.2
20200404143637 65 132 11.0 19.0 0.00 0.00 0.00 69 1009.1
20200404143137 65 134 11.0 20.0 0.00 0.00 0.00 68 1009.1
20200404142636 65 135 9.0 20.0 0.00 0.00 0.00 68 1009.1
20200404142135 65 127 9.0 15.0 0.00 0.00 0.00 70 1009.2
20200404141636 64 134 10.0 18.0 0.00 0.00 0.00 70 1009.4
20200404141131 63 179 10.0 18.0 0.00 0.00 0.00 70 1009.5
20200404140630 63 182 9.0 16.0 0.00 0.00 0.00 70 1009.7
20200404140130 63 161 8.0 15.0 0.00 0.00 0.00 70 1009.7
20200404135631 64 148 11.0 22.0 0.00 0.00 0.00 69 1009.7
20200404135131 64 189 12.0 22.0 0.00 0.00 0.00 69 1009.7
20200404134631 65 176 11.0 19.0 0.00 0.00 0.00 69 1009.7
20200404134133 64 143 11.0 20.0 0.00 0.00 0.00 68 1009.6
20200404133628 65 169 11.0 20.0 0.00 0.00 0.00 68 1009.7
20200404133129 64 149 11.0 20.0 0.00 0.00 0.00 69 1009.7
20200404132629 63 154 12.0 20.0 0.00 0.00 0.00 69 1009.7
20200404132128 63 171 12.0 19.0 0.00 0.00 0.00 70 1009.7
20200404131628 63 169 11.0 20.0 0.00 0.00 0.00 70 1009.9
20200404131134 62 148 12.0 20.0 0.00 0.00 0.00 70 1010.0
20200404130624 62 173 13.0 22.0 0.00 0.00 0.00 70 1009.9
20200404130125 63 179 13.0 22.0 0.00 0.00 0.00 69 1009.9
20200404125624 63 154 13.0 25.0 0.00 0.00 0.00 68 1009.8
20200404125122 63 171 14.0 25.0 0.00 0.00 0.00 69 1009.8
20200404124625 63 163 14.0 22.0 0.00 0.00 0.00 68 1009.8
20200404124112 63 163 13.0 24.0 0.00 0.00 0.00 69 1009.8
20200404123613 63 164 14.0 31.0 0.00 0.00 0.00 68 1009.8
20200404123113 63 169 14.0 31.0 0.00 0.00 0.00 68 1009.9
20200404122612 63 161 13.0 25.0 0.00 0.00 0.00 68 1010.1
20200404122110 63 183 13.0 25.0 0.00 0.00 0.00 68 1010.0
20200404121602 63 144 13.0 25.0 0.00 0.00 0.00 68 1010.1
20200404121105 63 163 12.0 23.0 0.00 0.00 0.00 67 1009.9
20200404120602 63 164 11.0 23.0 0.00 0.00 0.00 67 1010.0
20200404120102 63 119 12.0 25.0 0.00 0.00 0.00 68 1009.9
20200404115605 62 154 14.0 25.0 0.00 0.00 0.00 68 1009.9
20200404115102 63 150 12.0 22.0 0.00 0.00 0.00 67 1009.8
20200404114602 63 137 12.0 20.0 0.00 0.00 0.00 67 1009.9
20200404114103 62 157 11.0 20.0 0.00 0.00 0.00 69 1009.9
20200404113602 62 157 10.0 16.0 0.00 0.00 0.00 69 1009.9
20200404113103 61 165 10.0 19.0 0.00 0.00 0.00 69 1010.0
20200404112603 61 135 11.0 21.0 0.00 0.00 0.00 70 1009.9
20200404112106 61 128 11.0 21.0 0.00 0.00 0.00 70 1010.0
20200404111605 60 154 11.0 23.0 0.00 0.00 0.00 71 1010.1
20200404111104 60 135 10.0 23.0 0.00 0.00 0.00 70 1010.1
20200404110600 60 159 10.0 22.0 0.00 0.00 0.00 70 1010.1
20200404110059 60 138 10.0 22.0 0.00 0.00 0.00 70 1010.1
20200404105559 60 182 11.0 18.0 0.00 0.00 0.00 69 1010.3
20200404105058 60 134 10.0 18.0 0.00 0.00 0.00 69 1010.1
20200404104558 60 135 9.0 19.0 0.00 0.00 0.00 69 1010.2
20200404104059 60 144 11.0 20.0 0.00 0.00 0.00 69 1010.2
20200404103556 60 134 13.0 22.0 0.00 0.00 0.00 69 1010.1
20200404103054 60 147 13.0 23.0 0.00 0.00 0.00 68 1010.1
20200404102556 60 140 11.0 23.0 0.00 0.00 0.00 68 1010.2
20200404102052 60 178 11.0 19.0 0.00 0.00 0.00 69 1010.2